Location: Alsip
(41.6689°N, 87.7387°W)
Time: 14:53:10
(UTC+00:00)

Envisat - Visible Passes

Search period start: 24 July 2021 00:00
Search period end: 03 August 2021 00:00
Orbit: 764 x 766 km, 98.1° (Epoch: 23 July)

Date Brightness Start Highest point End Pass type
(mag) Time Alt. Az. Time Alt. Az. Time Alt. Az.
24 Jul 5.9 09:47:31 10° ENE 09:49:35 12° E 09:51:38 10° ESE visible
29 Jul 5.7 10:00:18 10° NE 10:03:37 17° E 10:06:56 10° SE visible
01 Aug 5.9 09:49:33 10° ENE 09:52:01 13° E 09:54:27 10° ESE visible
